Regional Weather Roundup
Issued by NWS Albany, NY

Current Version | Previous Version | Text Only | Print | Product List | Glossary On
Versions: 1 2 3 4 5 6 7 8 9 10 11 12 13 14 15 16 17 18 19 20 21 22 23 24 25 26 27 28 29 30 31 32 33 34 35 36 37 38 39 40 41 42 43 44 45 46
000
ASUS41 KALY 070010
RWRALY

NEW YORK STATE HOURLY WEATHER ROUNDUP
NATIONAL WEATHER SERVICE ALBANY NY
700 PM EST SAT MAR 06 2021

NOTE: "FAIR" INDICATES FEW OR NO CLOUDS BELOW 12,000 FEET WITH NO
SIGNIFICANT WEATHER AND/OR NO OBSTRUCTIONS TO VISIBILITY.

NYZ032-033-038>043-046>054-057>066-NYZ062>081-082-084-070100-
EAST


CITY           SKY/WX    TMP DP  RH WIND       PRES   REMARKS
ALBANY         CLOUDY    22   7  52 W7        30.15R WCI  13
GLENS FALLS    PTCLDY    21   3  45 W9        30.13R WCI  11
POUGHKEEPSIE   PTCLDY    27   8  44 NW7       30.16R WCI  19
NEWBURGH       MOCLDY    27  12  54 W14       30.14R WCI  15
MONTGOMERY     MOCLDY    26   8  46 NW12G21   30.15R WCI  16
WHITE PLAINS   PTCLDY    28   7  41 NW17G24   30.13R WCI  16
ISLIP          MOCLDY    31  12  45 W12       30.14R WCI  22
NEW YORK CITY  MOCLDY    32  10  40 NW20G31   30.17R WCI  20
CENTRAL PARK   MOCLDY    31   8  38 NW8G22    30.18R WCI  23
$$

NYZ005>009-017-018-044>046-055-056-070100-
CENTRAL


CITY           SKY/WX    TMP DP  RH WIND       PRES   REMARKS
FULTON         CLOUDY    24  12  60 NW10      30.16R WCI  14
SYRACUSE       LGT SNOW  23  20  88 W8        30.16R VSB 3/4 WCI  14
ROME           LGT SNOW  20  16  84 NW3       30.17R FOG
ELMIRA         CLOUDY    27  12  53 W7        30.15R WCI  19
BINGHAMTON     FLURRIES  20  13  74 NW8       30.07R WCI  10
MONTICELLO     CLOUDY    21  10  62 W8        30.09R WCI  11
$$

NYZ026>034-041>043-087-070100-
NORTH


CITY           SKY/WX    TMP DP  RH WIND       PRES   REMARKS
WATERTOWN      CLOUDY    22  10  60 CALM      30.16R
FORT DRUM      NOT AVBL
OGDENSBURG     CLOUDY    19   9  63 N10       30.15R WCI   8
MASSENA        CLOUDY    19   5  54 W8        30.18R WCI   9
SARANAC LAKE   CLOUDY    12   3  67 SW5       30.02R WCI   4
PLATTSBURGH    CLOUDY    20   5  52 W3        30.14R
$$

NYZ001>004-010>016-019>021-085-070100-
WEST


CITY           SKY/WX    TMP DP  RH WIND       PRES   REMARKS
NIAGARA FALLS  PTCLDY    27  12  53 NW12      30.20R WCI  17
BUFFALO        PTCLDY    28  12  51 NW9       30.19R WCI  19
DUNKIRK        MOCLDY    29  16  58 W10G17    30.22R WCI  20
JAMESTOWN      FLURRIES N/A N/A N/A MISG      30.16R
WELLSVILLE     CLOUDY    21  15  78 W10       30.10R WCI  10
ROCHESTER      MOCLDY    26  13  57 NW9       30.19R WCI  17
PENN YAN       MOCLDY    25  15  66 W7        30.15R WCI  17
$$

             KEY
       WCI = WIND CHILL INDEX
       VSB = VISIBILITY
       HX  = HEAT INDEX
$$




USA.gov is the U.S. government's official web portal to all federal, state and local government web resources and services.